User: anonymous   Login
Location: Unspecified
(0.0000°N, 0.0000°E)
Time: 18:07:40
(UTC+00:00)
Language:

STARLINK-30136 - Orbit

View from above orbital plane
View from above orbital plane
View from above satellite
View from above satellite

Ground track
Ground track

The orbit is defined by the following mean orbital elements,

1 56844U          26144.96887309 +.00000000 +00000-0 -80912-4 0 00002
2 56844  43.0063  36.2103 0000999 214.5157 145.5630 15.27590345    07
Epoch (UTC): 24 May 2026 23:15:10
Eccentricity: 0.0000999
inclination: 43.0063°
perigee height: 482 km
apogee height: 484 km
right ascension of ascending node: 36.2103°
argument of perigee: 214.5157°
revolutions per day: 15.27590345
mean anomaly at epoch: 145.5630°

The dashed part of the orbit path shows where the satellite is in the earth's shadow,  

DLR